CST,Max TemperatureF,Mean TemperatureF,Min TemperatureF,Max Dew PointF,MeanDew PointF,Min DewpointF,Max Humidity, Mean Humidity, Min Humidity, Max Sea Level PressureIn, Mean Sea Level PressureIn, Min Sea Level PressureIn, Max VisibilityMiles, Mean VisibilityMiles, Min VisibilityMiles, Max Wind SpeedMPH, Mean Wind SpeedMPH, Max Gust SpeedMPH,PrecipitationIn, CloudCover, Events, WindDirDegrees
2011-11-1,,,,,,,,,,,,,,,,,,,,,,
2011-11-2,,,,,,,,,,,,,,,,,,,,,,
2011-11-3,74,42,38,39,37,32,91,76,57,30.22,30.10,29.95,10,10,10,21,14,32,0.03,8,Rain,338
2011-11-4,74,48,36,43,38,32,89,72,52,30.29,30.21,30.14,10,10,1,9,5,,0.00,2,,84
2011-11-5,59,50,42,44,43,41,94,76,55,30.15,30.04,29.89,10,10,7,17,10,23,0.00,4,,148
2011-11-6,65,58,52,55,50,45,80,72,65,30.05,29.96,29.90,10,10,10,17,12,22,0.00,4,,165
2011-11-7,62,58,55,59,56,53,97,95,88,30.15,30.06,29.92,10,6,1,12,6,,0.39,8,Rain-Thunderstorm,86
2011-11-8,60,56,51,58,54,50,99,97,93,29.96,29.89,29.80,10,6,0,10,4,,0.99,8,Fog-Rain-Thunderstorm,32
2011-11-9,52,44,37,52,36,29,97,72,42,30.22,30.04,29.69,10,9,2,20,11,32,0.01,4,Rain,295
2011-11-10,47,40,34,26,20,13,63,46,26,30.26,30.22,30.16,10,10,10,17,8,30,0.00,0,,282
2011-11-11,66,47,28,35,29,22,78,52,27,30.12,29.91,29.80,10,10,10,17,7,22,0.00,0,,186
2011-11-12,61,51,41,46,34,31,69,49,34,29.84,29.71,29.59,10,10,10,18,9,24,0.00,0,,166
2011-11-13,72,64,57,51,44,36,75,50,27,29.62,29.52,29.41,10,10,10,23,11,34,0.00,0,,208
2011-11-14,63,56,48,46,40,37,76,57,38,29.77,29.64,29.52,10,10,10,17,6,26,0.00,0,,239
2011-11-15,67,53,39,48,38,28,85,58,34,29.95,29.78,29.72,10,10,10,15,4,20,0.00,0,,223
2011-11-16,45,39,33,28,20,15,63,44,31,30.28,30.15,29.97,10,10,10,13,8,16,0.00,3,,353
2011-11-17,48,38,27,24,18,12,79,50,24,30.38,30.31,30.21,10,10,10,12,4,17,0.00,0,,224
2011-11-18,61,47,33,25,21,15,69,42,18,30.15,30.00,29.82,10,10,10,24,12,36,0.00,0,,169
2011-11-19,69,57,45,54,42,26,77,56,40,30.00,29.77,29.66,10,10,10,20,13,32,0.00,7,,183
2011-11-20,39,36,33,36,31,28,97,78,69,30.25,30.19,30.09,10,9,2,14,9,18,0.00,7,,21
2011-11-21,45,41,37,42,39,36,98,92,86,30.23,30.17,30.06,10,5,2,6,3,,0.00,8,,25
2011-11-22,47,44,42,45,43,42,97,93,88,30.11,29.98,29.91,10,7,3,12,6,16,0.06,8,Rain,339
2011-11-23,49,44,40,44,41,39,97,90,76,30.29,30.23,30.17,10,7,4,9,4,,0.00,5,,183
2011-11-24,66,52,39,48,43,38,99,77,43,30.24,30.17,30.08,10,7,2,15,9,18,0.00,2,,162
2011-11-25,66,54,42,46,42,40,90,68,43,30.05,29.93,29.83,10,10,10,16,11,25,0.00,0,,175
2011-11-26,57,49,41,55,47,37,96,87,65,30.03,29.86,29.78,10,8,3,21,11,29,0.85,8,Rain,255
2011-11-27,40,38,35,32,29,27,76,72,68,30.20,30.14,30.05,10,10,10,20,12,28,0.00,8,,326
2011-11-28,37,34,31,28,27,26,83,73,66,30.16,30.09,30.00,10,10,10,10,6,17,0.00,6,,353
2011-11-29,46,38,30,30,23,14,89,63,34,30.18,30.09,29.96,10,10,10,18,11,25,0.00,0,,328
2011-11-30,48,34,20,18,14,10,78,45,21,30.19,30.14,30.07,10,10,10,9,4,,0.00,0,,176